TimeCST,TemperatureF,Dew PointF,Humidity,Sea Level PressureIn,VisibilityMPH,Wind Direction,Wind SpeedMPH,Gust SpeedMPH,PrecipitationIn,Events,Conditions,WindDirDegrees,DateUTC
12:15 AM,38.8,36.1,90,30.17,10.0,NW,9.2,-,N/A,,Overcast,310,2013-11-26 06:15:00
12:35 AM,39.0,36.0,89,30.18,7.0,NW,11.5,16.1,N/A,,Overcast,320,2013-11-26 06:35:00
12:55 AM,38.5,36.0,91,30.16,7.0,NW,15.0,-,N/A,,Overcast,320,2013-11-26 06:55:00
1:15 AM,38.3,35.6,90,30.15,10.0,NW,15.0,-,N/A,,Overcast,320,2013-11-26 07:15:00
1:35 AM,38.3,35.6,90,30.15,10.0,NW,16.1,20.7,N/A,,Overcast,320,2013-11-26 07:35:00
1:55 AM,38.3,34.9,87,30.13,10.0,NNW,13.8,19.6,N/A,,Overcast,330,2013-11-26 07:55:00
2:15 AM,37.9,35.4,91,30.11,7.0,NNW,13.8,-,N/A,,Overcast,330,2013-11-26 08:15:00
2:35 AM,37.9,35.2,90,30.12,10.0,NW,17.3,25.3,N/A,,Overcast,320,2013-11-26 08:35:00
2:55 AM,38.3,35.2,89,30.14,10.0,NW,15.0,20.7,N/A,,Overcast,310,2013-11-26 08:55:00
3:15 AM,38.3,35.6,90,30.16,10.0,NW,13.8,17.3,N/A,,Overcast,310,2013-11-26 09:15:00
3:35 AM,38.5,35.2,88,30.14,10.0,NW,15.0,20.7,N/A,,Overcast,320,2013-11-26 09:35:00
3:55 AM,38.5,35.1,87,30.13,10.0,NW,16.1,19.6,N/A,,Overcast,320,2013-11-26 09:55:00
4:15 AM,38.7,35.4,88,30.17,10.0,WNW,10.4,19.6,N/A,,Overcast,300,2013-11-26 10:15:00
4:35 AM,38.3,35.1,88,30.13,10.0,NW,16.1,21.9,N/A,,Overcast,320,2013-11-26 10:35:00
4:55 AM,37.8,35.1,90,30.12,10.0,NW,17.3,24.2,N/A,,Overcast,310,2013-11-26 10:55:00
5:15 AM,37.9,34.7,88,30.17,10.0,NW,12.7,21.9,N/A,,Overcast,310,2013-11-26 11:15:00
5:35 AM,38.3,34.3,86,30.15,10.0,NW,12.7,19.6,N/A,,Overcast,320,2013-11-26 11:35:00
5:55 AM,38.3,34.3,86,30.14,10.0,NW,18.4,26.5,N/A,,Overcast,320,2013-11-26 11:55:00
6:15 AM,37.9,34.3,87,30.14,10.0,NW,13.8,-,N/A,,Overcast,320,2013-11-26 12:15:00
6:35 AM,37.9,34.7,88,30.16,10.0,NW,15.0,23.0,N/A,,Overcast,310,2013-11-26 12:35:00
6:55 AM,38.3,34.0,84,30.17,10.0,NW,13.8,19.6,N/A,,Overcast,310,2013-11-26 12:55:00
7:15 AM,38.3,34.2,85,30.18,10.0,NW,15.0,21.9,N/A,,Overcast,320,2013-11-26 13:15:00
7:35 AM,38.3,34.2,85,30.19,10.0,NW,12.7,23.0,N/A,,Overcast,310,2013-11-26 13:35:00
7:55 AM,38.3,34.5,86,30.19,10.0,NW,11.5,21.9,N/A,,Overcast,310,2013-11-26 13:55:00
8:15 AM,37.9,34.7,88,30.19,10.0,NW,13.8,-,N/A,,Overcast,310,2013-11-26 14:15:00
8:35 AM,37.9,34.7,88,30.19,7.0,NW,13.8,-,N/A,Rain,Light Rain,310,2013-11-26 14:35:00
8:55 AM,37.8,34.7,89,30.21,5.0,NW,10.4,-,N/A,Rain,Light Rain,310,2013-11-26 14:55:00
9:15 AM,38.1,35.1,89,30.21,4.0,NW,12.7,-,N/A,,Light Drizzle,310,2013-11-26 15:15:00
9:35 AM,38.3,35.2,89,30.21,10.0,NW,9.2,-,N/A,Rain,Light Rain,320,2013-11-26 15:35:00
9:55 AM,38.5,35.2,88,30.21,10.0,NW,10.4,16.1,N/A,,Overcast,310,2013-11-26 15:55:00
10:15 AM,39.0,35.1,86,30.21,10.0,NW,10.4,16.1,N/A,,Overcast,310,2013-11-26 16:15:00
10:35 AM,38.8,35.1,86,30.21,10.0,NW,16.1,24.2,N/A,Rain,Light Rain,320,2013-11-26 16:35:00
10:55 AM,39.2,35.6,87,30.21,7.0,NW,18.4,24.2,N/A,,Overcast,310,2013-11-26 16:55:00
11:15 AM,39.6,36.0,87,30.20,7.0,NW,15.0,21.9,N/A,,Light Drizzle,320,2013-11-26 17:15:00
11:35 AM,39.6,35.8,86,30.20,5.0,NW,10.4,-,N/A,Rain,Light Rain,310,2013-11-26 17:35:00
11:55 AM,40.3,36.1,85,30.20,7.0,WNW,10.4,16.1,N/A,,Overcast,300,2013-11-26 17:55:00
12:15 PM,40.5,36.5,86,30.19,7.0,WNW,13.8,19.6,N/A,,Overcast,300,2013-11-26 18:15:00
12:35 PM,41.0,36.3,83,30.18,7.0,NW,11.5,19.6,N/A,,Overcast,310,2013-11-26 18:35:00
12:55 PM,41.2,36.3,83,30.18,7.0,NW,13.8,18.4,N/A,,Overcast,310,2013-11-26 18:55:00
1:15 PM,41.5,36.5,82,30.17,7.0,WNW,16.1,-,N/A,,Overcast,300,2013-11-26 19:15:00
1:35 PM,42.4,36.5,79,30.17,7.0,WNW,13.8,19.6,N/A,,Overcast,300,2013-11-26 19:35:00
1:55 PM,42.8,36.3,78,30.17,10.0,NW,16.1,19.6,N/A,,Overcast,310,2013-11-26 19:55:00
2:15 PM,43.3,36.7,77,30.17,10.0,WNW,15.0,19.6,N/A,,Overcast,300,2013-11-26 20:15:00
2:35 PM,43.7,37.0,77,30.17,10.0,NW,12.7,17.3,N/A,,Overcast,310,2013-11-26 20:35:00
2:55 PM,43.9,36.9,76,30.18,10.0,WNW,12.7,19.6,N/A,,Overcast,300,2013-11-26 20:55:00
3:15 PM,44.6,37.2,75,30.18,10.0,NW,12.7,-,N/A,,Overcast,310,2013-11-26 21:15:00
3:35 PM,45.7,37.4,73,30.18,10.0,WNW,10.4,-,N/A,,Overcast,300,2013-11-26 21:35:00
3:55 PM,45.7,36.9,71,30.18,10.0,WNW,11.5,-,N/A,,Mostly Cloudy,300,2013-11-26 21:55:00
4:15 PM,46.9,37.2,69,30.19,10.0,NW,10.4,-,N/A,,Mostly Cloudy,310,2013-11-26 22:15:00
4:35 PM,47.5,37.4,68,30.19,10.0,NW,8.1,-,N/A,,Mostly Cloudy,310,2013-11-26 22:35:00
4:55 PM,46.8,37.4,70,30.19,10.0,NW,5.8,-,N/A,,Scattered Clouds,310,2013-11-26 22:55:00
5:15 PM,45.9,37.4,72,30.20,10.0,WNW,5.8,-,N/A,,Clear,300,2013-11-26 23:15:00
5:35 PM,45.1,36.3,71,30.21,10.0,NW,5.8,-,N/A,,Clear,310,2013-11-26 23:35:00
5:55 PM,44.8,35.2,69,30.21,10.0,NW,4.6,-,N/A,,Clear,310,2013-11-26 23:55:00
6:15 PM,43.7,35.4,73,30.23,10.0,WNW,3.5,-,N/A,,Clear,300,2013-11-27 00:15:00
6:35 PM,42.8,34.7,73,30.23,10.0,WNW,4.6,-,N/A,,Clear,300,2013-11-27 00:35:00
6:55 PM,41.9,34.9,76,30.24,10.0,WNW,5.8,-,N/A,,Clear,300,2013-11-27 00:55:00
7:15 PM,41.5,34.7,77,30.25,10.0,WNW,5.8,-,N/A,,Clear,300,2013-11-27 01:15:00
7:35 PM,41.2,34.2,76,30.26,10.0,NW,6.9,-,N/A,,Clear,310,2013-11-27 01:35:00
7:55 PM,41.0,33.8,76,30.27,10.0,WNW,5.8,-,N/A,,Clear,300,2013-11-27 01:55:00
8:15 PM,41.0,33.4,74,30.27,10.0,NW,5.8,-,N/A,,Clear,310,2013-11-27 02:15:00
8:35 PM,40.5,33.1,75,30.28,10.0,NW,4.6,-,N/A,,Clear,310,2013-11-27 02:35:00
8:55 PM,40.6,32.7,73,30.29,10.0,NW,6.9,-,N/A,,Clear,310,2013-11-27 02:55:00
9:15 PM,41.0,32.4,71,30.29,10.0,WNW,6.9,-,N/A,,Clear,300,2013-11-27 03:15:00
9:35 PM,41.0,32.2,71,30.30,10.0,WNW,8.1,-,N/A,,Clear,290,2013-11-27 03:35:00
9:55 PM,39.2,32.2,76,30.31,10.0,West,6.9,-,N/A,,Clear,280,2013-11-27 03:55:00
10:15 PM,39.2,32.0,75,30.32,10.0,West,5.8,-,N/A,,Clear,280,2013-11-27 04:15:00
10:35 PM,37.9,32.0,79,30.32,10.0,West,5.8,-,N/A,,Clear,280,2013-11-27 04:35:00
10:55 PM,37.4,32.0,81,30.33,10.0,West,6.9,-,N/A,,Clear,280,2013-11-27 04:55:00
11:15 PM,37.6,32.0,80,30.33,10.0,WNW,6.9,-,N/A,,Clear,300,2013-11-27 05:15:00
11:35 PM,37.0,32.0,82,30.33,10.0,NW,8.1,-,N/A,,Clear,310,2013-11-27 05:35:00
11:55 PM,37.6,32.0,80,30.33,10.0,WNW,9.2,-,N/A,,Clear,300,2013-11-27 05:55:00